When you browse on this site, cookies collect data to enhance your experience and personalize the content and advertising you see.
Visit our Privacy Policy to learn more. By continuing to use the site, you agree to this use of cookies and data.
  • în România
  • Lista ţărilor
  • Pe 7 zile
  • Temperatura apei
  • Meteo pe hartă
  • Widget-uri
  • user-avatar
    Intrare

    Meteo pe oră la Kaczowice

    Astăzi, 17 Ianuarie, Vineri

    Timp Temperatura Precipitaţii Vânt Presiune Umiditate
    00:00 +2°C° 0 mm 1 m/s 749 mmHg 88%
    01:00 +2°C° 0 mm 1 m/s 749 mmHg 89%
    02:00 +2°C° 0 mm 1 m/s 749 mmHg 89%
    03:00 -1°C° 0 mm 2 m/s 749 mmHg 90%
    04:00 -1°C° 0 mm 2 m/s 748 mmHg 90%
    05:00 -1°C° 0 mm 2 m/s 748 mmHg 91%
    06:00 -1°C° 0 mm 3 m/s 748 mmHg 92%
    07:00 -1°C° 0 mm 3 m/s 748 mmHg 93%
    08:00 -1°C° 0 mm 4 m/s 748 mmHg 91%
    09:00 0°C° 0 mm 4 m/s 747 mmHg 88%
    10:00 +1°C° 0 mm 5 m/s 747 mmHg 86%
    11:00 +1°C° 0 mm 5 m/s 746 mmHg 83%
    12:00 +2°C° 0 mm 5 m/s 746 mmHg 80%
    13:00 +3°C° 0 mm 5 m/s 746 mmHg 77%
    14:00 +3°C° 0 mm 4 m/s 745 mmHg 79%
    15:00 +3°C° 0 mm 3 m/s 744 mmHg 81%
    16:00 +3°C° 0 mm 2 m/s 744 mmHg 83%
    17:00 +3°C° 0 mm 2 m/s 744 mmHg 83%
    18:00 +2°C° 0 mm 2 m/s 744 mmHg 83%
    19:00 +3°C° 0 mm 1 m/s 744 mmHg 82%
    20:00 +2°C° 0 mm 1 m/s 743 mmHg 82%
    21:00 +2°C° 0 mm 1 m/s 743 mmHg 83%
    22:00 +2°C° 0 mm 1 m/s 743 mmHg 83%
    23:00 +2°C° 0 mm 1 m/s 743 mmHg 83%

    Mâine, 18 Ianuarie, Sâmbătă

    Timp Temperatura Precipitaţii Vânt Presiune Umiditate
    00:00 +2°C° 0 mm 1 m/s 743 mmHg 83%
    01:00 +2°C° 0 mm 1 m/s 743 mmHg 83%
    02:00 +2°C° 0 mm 1 m/s 743 mmHg 84%
    03:00 +1°C° 0 mm 1 m/s 743 mmHg 84%
    04:00 +1°C° 0 mm 1 m/s 743 mmHg 84%
    05:00 -1°C° 0 mm 2 m/s 743 mmHg 84%
    06:00 -1°C° 0 mm 2 m/s 743 mmHg 83%
    07:00 -1°C° 0 mm 2 m/s 744 mmHg 83%
    08:00 +1°C° 0 mm 2 m/s 744 mmHg 78%
    09:00 +1°C° 0 mm 3 m/s 744 mmHg 73%
    10:00 +1°C° 0 mm 3 m/s 744 mmHg 68%
    11:00 +2°C° 0 mm 3 m/s 744 mmHg 67%
    12:00 +3°C° 0 mm 2 m/s 744 mmHg 67%
    13:00 +3°C° 0 mm 2 m/s 744 mmHg 66%
    14:00 +3°C° 0.1 mm 2 m/s 744 mmHg 72%
    15:00 +2°C° 0.1 mm 2 m/s 744 mmHg 79%
    16:00 +1°C° 0.1 mm 2 m/s 743 mmHg 85%
    17:00 +1°C° 0.2 mm 2 m/s 744 mmHg 89%
    18:00 +1°C° 0.2 mm 2 m/s 744 mmHg 92%
    19:00 +1°C° 0.2 mm 2 m/s 745 mmHg 95%
    20:00 +2°C° 0.3 mm 2 m/s 744 mmHg 96%
    21:00 +2°C° 0.3 mm 2 m/s 744 mmHg 96%
    22:00 +1°C° 0.3 mm 3 m/s 744 mmHg 97%
    23:00 +1°C° 0.2 mm 3 m/s 744 mmHg 96%

    Poimâine, 19 Ianuarie, Duminică

    Timp Temperatura Precipitaţii Vânt Presiune Umiditate
    00:00 +2°C° 0.2 mm 2 m/s 745 mmHg 95%
    01:00 +2°C° 0.2 mm 2 m/s 745 mmHg 94%
    02:00 +1°C° 0.1 mm 2 m/s 745 mmHg 93%
    03:00 +1°C° 0.1 mm 2 m/s 745 mmHg 92%
    04:00 +1°C° 0.1 mm 2 m/s 744 mmHg 92%
    05:00 +1°C° 0 mm 2 m/s 745 mmHg 92%
    06:00 +1°C° 0 mm 2 m/s 745 mmHg 92%
    07:00 +1°C° 0 mm 2 m/s 746 mmHg 92%
    08:00 +1°C° 0 mm 2 m/s 746 mmHg 90%
    09:00 +1°C° 0 mm 2 m/s 746 mmHg 87%
    10:00 +2°C° 0 mm 2 m/s 747 mmHg 85%
    11:00 +3°C° 0 mm 2 m/s 747 mmHg 81%
    12:00 +3°C° 0 mm 2 m/s 747 mmHg 78%
    13:00 +4°C° 0 mm 2 m/s 748 mmHg 75%
    14:00 +3°C° 0 mm 2 m/s 748 mmHg 78%
    15:00 +3°C° 0 mm 2 m/s 749 mmHg 81%
    16:00 +2°C° 0 mm 2 m/s 749 mmHg 84%
    17:00 +2°C° 0 mm 2 m/s 750 mmHg 86%
    18:00 +1°C° 0 mm 2 m/s 750 mmHg 88%
    19:00 +1°C° 0 mm 2 m/s 751 mmHg 89%
    20:00 +1°C° 0 mm 2 m/s 752 mmHg 90%
    21:00 -1°C° 0 mm 2 m/s 752 mmHg 91%
    22:00 -1°C° 0 mm 2 m/s 753 mmHg 92%
    23:00 -1°C° 0 mm 2 m/s 753 mmHg 92%

    20 Ianuarie, Luni

    Timp Temperatura Precipitaţii Vânt Presiune Umiditate
    00:00 -1°C° 0 mm 2 m/s 754 mmHg 93%
    01:00 -1°C° 0 mm 2 m/s 754 mmHg 93%
    02:00 -2°C° 0 mm 2 m/s 754 mmHg 93%
    03:00 -2°C° 0 mm 2 m/s 755 mmHg 93%
    04:00 -2°C° 0 mm 2 m/s 755 mmHg 93%
    05:00 -2°C° 0 mm 2 m/s 756 mmHg 94%
    06:00 -2°C° 0 mm 2 m/s 757 mmHg 94%
    07:00 -2°C° 0 mm 2 m/s 757 mmHg 94%
    08:00 -1°C° 0 mm 2 m/s 758 mmHg 92%
    09:00 -1°C° 0 mm 2 m/s 758 mmHg 90%
    10:00 +1°C° 0 mm 2 m/s 758 mmHg 88%
    11:00 +1°C° 0 mm 2 m/s 759 mmHg 85%
    12:00 +1°C° 0 mm 2 m/s 759 mmHg 83%
    13:00 +1°C° 0 mm 2 m/s 759 mmHg 80%
    14:00 +1°C° 0 mm 2 m/s 759 mmHg 82%
    15:00 -1°C° 0 mm 2 m/s 759 mmHg 84%
    16:00 +1°C° 0 mm 1 m/s 759 mmHg 85%
    17:00 +1°C° 0 mm 1 m/s 759 mmHg 87%
    18:00 0°C° 0 mm 1 m/s 760 mmHg 88%
    19:00 0°C° 0 mm 1 m/s 760 mmHg 89%
    20:00 0°C° 0 mm 1 m/s 760 mmHg 89%
    21:00 0°C° 0 mm 1 m/s 760 mmHg 89%
    22:00 0°C° 0 mm 1 m/s 760 mmHg 89%
    23:00 0°C° 0 mm 1 m/s 760 mmHg 89%

    21 Ianuarie, Marţi

    Timp Temperatura Precipitaţii Vânt Presiune Umiditate
    00:00 0°C° 0 mm 1 m/s 759 mmHg 89%
    01:00 0°C° 0 mm 1 m/s 759 mmHg 89%
    02:00 0°C° 0 mm 1 m/s 759 mmHg 89%
    03:00 -3°C° 0 mm 2 m/s 759 mmHg 89%
    04:00 -3°C° 0 mm 2 m/s 759 mmHg 89%
    05:00 -3°C° 0 mm 2 m/s 758 mmHg 88%
    06:00 -3°C° 0 mm 2 m/s 758 mmHg 88%
    07:00 -3°C° 0 mm 2 m/s 757 mmHg 87%
    08:00 -2°C° 0 mm 2 m/s 757 mmHg 81%
    09:00 -1°C° 0 mm 2 m/s 757 mmHg 75%
    10:00 +1°C° 0 mm 2 m/s 757 mmHg 69%
    11:00 +2°C° 0 mm 2 m/s 757 mmHg 65%
    12:00 +3°C° 0 mm 2 m/s 756 mmHg 61%
    13:00 +3°C° 0 mm 3 m/s 756 mmHg 57%
    14:00 +3°C° 0 mm 2 m/s 755 mmHg 60%
    15:00 +2°C° 0 mm 2 m/s 755 mmHg 64%
    16:00 +1°C° 0 mm 2 m/s 754 mmHg 67%
    17:00 +1°C° 0 mm 2 m/s 754 mmHg 69%
    18:00 -1°C° 0 mm 2 m/s 754 mmHg 70%
    19:00 -1°C° 0 mm 3 m/s 754 mmHg 72%
    20:00 -1°C° 0 mm 3 m/s 753 mmHg 73%
    21:00 -1°C° 0 mm 3 m/s 753 mmHg 75%
    22:00 -1°C° 0 mm 3 m/s 753 mmHg 76%
    23:00 -1°C° 0 mm 3 m/s 753 mmHg 76%

    22 Ianuarie, Miercuri

    Timp Temperatura Precipitaţii Vânt Presiune Umiditate
    00:00 -1°C° 0 mm 3 m/s 752 mmHg 75%
    01:00 -2°C° 0 mm 3 m/s 752 mmHg 75%
    02:00 -2°C° 0 mm 3 m/s 752 mmHg 73%
    03:00 -2°C° 0 mm 3 m/s 751 mmHg 71%
    04:00 -2°C° 0 mm 3 m/s 751 mmHg 70%
    05:00 -2°C° 0 mm 3 m/s 751 mmHg 69%
    06:00 -2°C° 0 mm 3 m/s 751 mmHg 69%
    07:00 -2°C° 0 mm 3 m/s 751 mmHg 69%
    08:00 -1°C° 0 mm 3 m/s 751 mmHg 66%
    09:00 0°C° 0 mm 3 m/s 751 mmHg 62%
    10:00 0°C° 0 mm 4 m/s 751 mmHg 58%
    11:00 0°C° 0 mm 4 m/s 750 mmHg 56%
    12:00 +1°C° 0 mm 4 m/s 750 mmHg 54%
    13:00 +1°C° 0 mm 4 m/s 750 mmHg 52%
    14:00 +1°C° 0 mm 3 m/s 749 mmHg 56%
    15:00 +1°C° 0 mm 3 m/s 749 mmHg 59%
    16:00 0°C° 0 mm 3 m/s 749 mmHg 63%
    17:00 -1°C° 0 mm 3 m/s 748 mmHg 65%
    18:00 -1°C° 0 mm 2 m/s 748 mmHg 66%
    19:00 -2°C° 0 mm 2 m/s 748 mmHg 67%
    20:00 -2°C° 0 mm 2 m/s 748 mmHg 67%
    21:00 -2°C° 0 mm 2 m/s 748 mmHg 68%
    22:00 -2°C° 0 mm 2 m/s 748 mmHg 68%
    23:00 -2°C° 0 mm 2 m/s 747 mmHg 69%
    Arată mai mult